Location: Unspecified
(34.4480°N, 0.0000°E)
Time: 09:56:00
(UTC+00:00)

XW-2D - Visible Passes

Search period start: 19 January 2020 00:00
Search period end: 29 January 2020 00:00
Orbit: 508 x 527 km, 97.5° (Epoch: 19 January)

Date Brightness Start Highest point End Pass type
(mag) Time Alt. Az. Time Alt. Az. Time Alt. Az.
19 Jan ? 05:44:43 10° NNE 05:48:26 65° E 05:52:07 10° S visible
19 Jan ? 17:56:01 10° SSW 17:59:07 24° W 18:02:13 10° NW visible
20 Jan ? 05:30:39 10° NNE 05:34:10 39° E 05:37:39 10° S visible
20 Jan ? 17:41:18 10° SSW 17:44:49 36° W 17:48:21 10° NNW visible
21 Jan ? 05:16:44 10° NE 05:19:53 25° E 05:23:00 10° SSE visible
22 Jan ? 05:03:06 10° NE 05:05:33 17° E 05:08:00 10° SE visible
22 Jan ? 06:36:35 10° NNW 06:39:36 24° WNW 06:42:36 10° SW visible
23 Jan ? 04:50:14 10° ENE 04:51:13 11° E 04:52:10 10° ESE visible
23 Jan ? 06:21:59 10° N 06:25:25 36° WNW 06:28:51 10° SW visible
24 Jan ? 06:07:33 10° N 06:11:14 58° WNW 06:14:53 10° SSW visible
24 Jan ? 18:20:34 10° WSW 18:22:05 12° W 18:23:36 10° WNW visible
25 Jan ? 05:53:16 10° NNE 05:57:00 87° ESE 06:00:43 10° SSW visible
25 Jan ? 18:05:04 10° SW 18:07:45 18° W 18:10:26 10° NW visible
26 Jan ? 05:39:06 10° NNE 05:42:45 53° E 05:46:23 10° S visible
26 Jan ? 17:50:10 10° SSW 17:53:26 28° W 17:56:43 10° NW visible
27 Jan ? 05:25:05 10° NNE 05:28:28 33° E 05:31:50 10° SSE visible
28 Jan ? 05:11:15 10° NE 05:14:10 21° E 05:17:04 10° SSE visible
